THOR AGENA D R/B, 2825

Orbit data source: Space-Track

THOR AGENA D R/B, 2825 is space debris in LEO originally from a launch on Wed, 31 May 1967 UTC launched from the Air Force Western Test Range (AFWTR). Debris objects in space refer to the collection of defunct objects orbiting the Earth. Examples of debris include non-operational satellites, rocket bodies, and fragments generated from explosions, collisions, or faulty payload assembly.

Loading next visibility...
Identifier
2825, 1967-053B
Orbit
LEO
Country
Flag of USUS
Related business
Manufacturer
LMSC
Mission
Spacecraft
Bus & Motor
AGENA D, Unknown motor
Mass
600 kg wet, 600 kg dry
Launch date (UTC)
1967-05-31 (59 years ago)
Launch vehicle
Unknown
Launch site
Air Force Western Test Range (AFWTR)
Object type
Payload
Rocket body
Debris
Shape & HBR
Unknown
Radar Cross Section
Large (>1 m²)

Expand to show TLE details & history
Last TLE update: 19 hours ago

TLE from 19 hours ago
0 THOR AGENA D R/B
1 02825U 67053B   25341.14634476  .00000130  00000-0  13022-3 0  9993
2 02825  69.9706 125.8196 0004672  44.4689 315.6792 13.97682319 65263
Epoch: 2025-12-07T03:30Z
TLE epoch observation values (Epoch: 2025-12-07T03:30:44.187Z)
Latitude
0.00002°
Longitude
-3.02842°
Altitude
901.711 km
Speed
7.403 km/s
True Right ascension
08h 23m 16s
True Declination
0° 00' 00"
Sunlit
Object was in full shadow at epoch
Visualization orbit readout
Latitude
Unknown
Longitude
Unknown
Altitude
Unknown
Speed
Unknown
Apparent Right ascension
Unknown
Apparent Declination
Unknown
Sunlit
N/A
Visualization observer readout
Local Sidereal Time
20:47:00
Azimuth
Unknown
Elevation
Unknown
Doppler factor
Unknown
Orbital elements
Apogee altitude
903.277 km
Perigee altitude
896.476 km
Semi-major axis
7,278.013 km
Eccentricity
0.00047
Inclination
69.9706°
RAAN
125.8196°
Arg. of periapsis
44.4689°
True anomaly
315.64178°
Mean anomaly
315.6792°
Eccentric anomaly
315.66049°
Mean motion
3.49562 °/min
Orbital period
102.99 mins
BSTAR
0.00013022
Loading maneuver chart data...
Computing Atmospheric mass density...
Loading historical data...
Loading historical data...
Loading historical data...
Loading historical data...
Loading historical data...
Loading historical data...
Loading historical data...

Documentation

Showing up to 5 results
|